Change the Weather History Date:

Monday, March 17, 2014

  Actual Average Record
Temperature  
Mean Temperature 47 °F 39 °F  
Max Temperature 52 °F 49 °F 70 °F (1972)
Min Temperature 41 °F 30 °F 23 °F (1965)
Degree Days  
Heating Degree Days 18 26  
Month to date heating degree days 425 479  
Since 1 July heating degree days 5756 5678  
Moisture  
Dew Point 18 °F    
Average Humidity 0    
Maximum Humidity 0    
Minimum Humidity 0    
Precipitation  
Precipitation 0.00 in 0.06 in 0.41 in (2012)
Month to date precipitation 2.21 0.92  
Year to date precipitation 4.83 4.25  
Sea Level Pressure  
Sea Level Pressure 30.01 in    
Wind  
Wind Speed 21 mph (WNW)    
Max Wind Speed 40 mph    
Max Gust Speed 0 mph    
Visibility 10 miles    
Events      
T = Trace of Precipitation, MM = Missing Value Source: NWS Daily Summary

Daily Weather History Graph

Daily Weather History Graph

Search for Another Location

Airport or City:

Trip Planner

Search our weather history database for the weather conditions in past years. The results will help you decide how hot, cold, wet, or windy it might be!

Date:

Astronomy

Mar. 17, 2014 Rise Set
Actual Time 7:09 AM PDT 7:09 PM PDT
Civil Twilight 6:39 AM PDT 7:40 PM PDT
Nautical Twilight 6:03 AM PDT 8:15 PM PDT
Astronomical Twilight 5:26 AM PDT 8:52 PM PDT
Moon 8:39 PM PDT (3/17) 7:22 AM PDT (3/17)
Length of Visible Light 13h 00m
Length of Day
11h 59m
Full, 99% of the Moon is Illuminated
Mar 17
Full
Mar 23
Last Quarter
Mar 30
New
Apr 7
First Quarter
Apr 15
Full

Hourly Weather History & Observations

Time (PDT) Temp. Windchill Dew Point Humidity Pressure Visibility Wind Dir Wind Speed Gust Speed Precip Events Conditions
12:55 AM 46.0 °F 40.6 °F 27.0 °F 47% 29.74 in 10.0 mi WNW 11.5 mph - N/A   Clear
1:55 AM 46.9 °F - 23.0 °F 39% 29.75 in 10.0 mi NW 21.9 mph 27.6 mph N/A   Clear
2:55 AM 46.9 °F - 23.0 °F 39% 29.76 in 10.0 mi NW 23.0 mph 33.4 mph N/A   Clear
3:55 AM 44.1 °F 37.7 °F 24.1 °F 45% 29.80 in 10.0 mi NW 12.7 mph - N/A   Clear
4:55 AM 45.0 °F 36.6 °F 19.9 °F 37% 29.83 in 10.0 mi NW 21.9 mph 31.1 mph N/A   Clear
5:55 AM 44.1 °F 36.8 °F 21.0 °F 40% 29.89 in 10.0 mi NNW 16.1 mph - N/A   Clear
6:55 AM 43.0 °F 34.0 °F 19.0 °F 38% 29.92 in 10.0 mi NW 21.9 mph 25.3 mph N/A   Clear
7:55 AM 44.1 °F 35.0 °F 18.0 °F 35% 29.95 in 10.0 mi NW 24.2 mph 32.2 mph N/A   Clear
8:55 AM 46.0 °F 37.6 °F 19.0 °F 34% 29.98 in 10.0 mi WNW 24.2 mph 32.2 mph N/A   Clear
9:55 AM 48.9 °F - 18.0 °F 29% 30.01 in 10.0 mi NW 27.6 mph 38.0 mph N/A   Clear
10:55 AM 50.0 °F - 17.1 °F 27% 30.02 in 10.0 mi NW 31.1 mph 38.0 mph N/A   Clear
11:55 AM 50.0 °F - 18.0 °F 28% 30.04 in 10.0 mi NW 31.1 mph 40.3 mph N/A   Clear
12:55 PM 51.1 °F - 17.1 °F 26% 30.06 in 10.0 mi NW 31.1 mph 46.0 mph N/A   Clear
1:55 PM 51.1 °F - 16.0 °F 25% 30.08 in 10.0 mi NW 29.9 mph 38.0 mph N/A   Clear
2:55 PM 52.0 °F - 12.9 °F 21% 30.06 in 10.0 mi WNW 33.4 mph 42.6 mph N/A   Clear
3:55 PM 51.1 °F - 12.9 °F 22% 30.05 in 10.0 mi WNW 40.3 mph 48.3 mph N/A   Clear
4:55 PM 50.0 °F - 12.9 °F 23% 30.08 in 10.0 mi NW 33.4 mph 46.0 mph N/A   Clear
5:55 PM 48.9 °F - 15.1 °F 26% 30.12 in 10.0 mi WNW 24.2 mph 34.5 mph N/A   Clear
6:55 PM 46.0 °F 38.8 °F 18.0 °F 33% 30.15 in 10.0 mi WNW 18.4 mph 31.1 mph N/A   Clear
7:55 PM 44.1 °F 36.2 °F 18.0 °F 35% 30.16 in 10.0 mi West 18.4 mph 29.9 mph N/A   Clear
8:55 PM 43.0 °F 35.7 °F 16.0 °F 34% 30.19 in 10.0 mi WNW 15.0 mph - N/A   Clear
9:55 PM 43.0 °F 35.4 °F 16.0 °F 34% 30.20 in 10.0 mi WNW 16.1 mph - N/A   Clear
10:55 PM 42.1 °F 34.9 °F 17.1 °F 37% 30.22 in 10.0 mi West 13.8 mph - N/A   Clear
11:55 PM 41.0 °F 33.1 °F 18.0 °F 40% 30.23 in 10.0 mi West 15.0 mph 21.9 mph N/A   Clear